Flag Weather past 2 weeks in Gaziantep, Turkey

Now
45 °F

Sprinkles. Partly cloudy.


Feels Like: 45 °F
Forecast: 39 / 50 °F
Wind: No wind

Location: Gaziantep Airport

Current Time: Nov 26, 2014 at 5:20:31 PM

Latest Report: Nov 26, 2014 at 4:50 PM


Visibility: N/A

Pressure: 29.80 "Hg

Humidity: 93%

Dew point: 43 °F

Location of GaziantepLocation

Historic Weather in Gaziantep — Graph

°F

Gaziantep temperature yesterday

Maximum temperature yesterday: 52 °F (at 12:20 PM)
Minimum temperature yesterday: 39 °F (at 4:50 AM)
Average temperature yesterday: 46 °F

Past Weeks' High & Low Weather Summary

 TemperatureHumidityPressure
High68 °F (Nov 12, 12:50 PM)100% (Nov 22, 1:50 AM)30.30 "Hg (Nov 22, 1:50 AM)
Low34 °F (Nov 12, 5:50 AM)21% (Nov 11, 3:20 PM)29.77 "Hg (Nov 22, 2:20 AM)
Average50 °F66%30.03 "Hg
* Reported Nov 11 3:20 PM — Nov 26 3:50 PM, Gaziantep, Weather by CustomWeather, © 2014

Note: Actual official high and low records may vary slightly from our data, if they occured in-between our weather recording intervals... More about our weather records

Advertising

Gaziantep weather history for previous 24 hours

 ConditionsComfort  
Time TempWeatherWind HumidityBarometerVisibility
3:50 PM
Nov 26
45 °FSprinkles. Broken clouds.2 mph87%29.80 "HgN/A
3:20 PM45 °FSprinkles. Broken clouds.6 mph87%29.80 "HgN/A
3:00 PM46 °FSprinkles. Broken clouds.12 mph82%29.80 "HgN/A
2:20 PM48 °FSprinkles. Broken clouds.13 mph76%29.80 "HgN/A
1:50 PM48 °FSprinkles. Broken clouds.10 mph76%29.80 "HgN/A
1:20 PM48 °FBroken clouds.10 mph71%29.77 "HgN/A
12:50 PM50 °FSprinkles. Broken clouds.10 mph76%29.77 "HgN/A
12:20 PM50 °FBroken clouds.10 mph67%29.77 "HgN/A
11:50 AM50 °FBroken clouds.10 mph76%29.80 "HgN/A
11:20 AM50 °FBroken clouds.9 mph76%29.80 "HgN/A
10:50 AM50 °FBroken clouds.13 mph67%29.80 "Hg4 mi
10:20 AM50 °FFog.13 mph71%29.80 "Hg3 mi
9:50 AM48 °FFog.7 mph94%29.83 "Hg2 mi
9:20 AM46 °FFog.9 mph93%29.83 "Hg2 mi
8:50 AM46 °FLight rain. Fog.13 mph93%29.80 "Hg1 mi
8:20 AM46 °FLight rain. Fog.12 mph93%29.80 "Hg1 mi
7:50 AM45 °FLight rain. Cloudy.9 mph93%29.80 "HgN/A
7:20 AM45 °FLight rain. Fog.13 mph93%29.80 "Hg2 mi
6:50 AM45 °FLight rain. Broken clouds.14 mph93%29.80 "Hg1 mi
6:20 AM45 °FLight rain. Mostly cloudy.15 mph93%29.77 "Hg1 mi
5:50 AM45 °FLight rain. Fog.14 mph93%29.80 "Hg1 mi
5:20 AM45 °FLight rain. Fog.13 mph93%29.80 "Hg1 mi
4:50 AM45 °FLight rain. Partly cloudy.12 mph93%29.80 "Hg1 mi
4:20 AM45 °FLight rain. Fog.12 mph93%29.80 "Hg2 mi
3:50 AM45 °FLight rain. Overcast.15 mph93%29.80 "Hg3 mi
3:20 AM45 °FLight rain. Fog.18 mph93%29.80 "Hg2 mi
2:50 AM45 °FLight rain. Fog.20 mph93%29.80 "Hg2 mi
2:20 AM45 °FLight rain. Fog.16 mph93%29.80 "Hg2 mi
1:50 AM45 °FLight rain. Fog.13 mph93%29.83 "Hg2 mi
1:20 AM45 °FRain. Fog.10 mph93%29.83 "Hg2 mi
12:50 AM45 °FLight rain. Fog.8 mph93%29.86 "Hg2 mi
12:20 AM46 °FSprinkles. Partly cloudy.7 mph82%29.86 "HgN/A
11:50 PM
Nov 25
46 °FLight rain. Partly cloudy.7 mph82%29.86 "HgN/A
11:20 PM46 °FLight rain. Partly cloudy.8 mph82%29.86 "HgN/A
10:50 PM46 °FPartly cloudy.8 mph82%29.89 "HgN/A
10:20 PM46 °FPartly cloudy.7 mph82%29.89 "HgN/A
9:50 PM48 °FPartly cloudy.6 mph76%29.89 "HgN/A
9:20 PM46 °FPartly cloudy.3 mph76%29.89 "HgN/A
8:50 PM46 °FPartly cloudy.6 mph76%29.92 "HgN/A
8:20 PM48 °FPartly cloudy.5 mph71%29.92 "HgN/A
7:50 PM46 °FPartly cloudy.3 mph76%29.92 "HgN/A
7:20 PM46 °FPartly cloudy.2 mph76%29.92 "HgN/A
6:50 PM45 °FPartly cloudy.No wind81%29.92 "HgN/A
6:20 PM45 °FPartly cloudy.2 mph81%29.92 "HgN/A
5:50 PM46 °FPartly cloudy.No wind76%29.92 "HgN/A
5:20 PM46 °FPartly cloudy.No wind76%29.92 "HgN/A
Weather by CustomWeather, © 2014

See weather overviewHow to use our weather pages